#timestamp,LO_Frequency,Hit,StdDev 
1521352815.7,286046999.9,N
1521352835.5,286047000.4,N
1521352855.3,286047000.6,N
1521352875.2,286047000.4,N
1521352895.0,286046999.4,N
1521352895.9,286046999.4,N
1521352915.8,286046999.5,N
1521352935.6,286046997.7,N
1521352955.4,286046997.7,N
1521352975.3,286046997.2,N
1521352995.1,286046999.3,N
1521353015.9,286046998.9,N
1521353035.7,286046999.0,N
1521353055.5,286046999.4,N
1521353075.4,286046994.9,Y
1521353095.2,286046998.0,P
1521353115.0,286046997.1,P
1521353115.9,286046997.1,N
1521353135.8,286046997.2,N
1521353155.6,286046999.6,N
1521353175.5,286046996.6,N
1521353195.3,286046998.6,N
1521353215.1,286046998.4,N
1521353235.9,286046997.5,N
1521353255.7,286046997.5,N
1521353275.5,286046997.5,N
1521353295.4,286046998.0,N
1521353315.2,286046994.9,Y
1521353335.1,286046996.5,P
1521353336.0,286046996.5,P
1521353355.8,286046997.0,P
1521353375.7,286046996.9,Y
1521353395.5,286047000.0,P
1521353415.3,286047000.4,N
1521353435.2,286046999.8,N
1521353455.0,286047000.1,N
1521353455.9,286047000.1,N
1521353475.7,286046999.9,N
1521353495.6,286047002.8,N
1521353515.4,286047001.9,N
1521353535.3,286047002.7,N
1521353555.1,286047000.2,N
1521353556.0,286047000.2,N
1521353575.8,286047001.1,N
1521353595.7,286046998.6,N
1521353615.5,286046998.6,N
1521353635.3,286046998.4,N
1521353655.2,286046999.3,N
1521353675.0,286047001.1,N
1521353675.9,286047001.1,N
1521353695.8,286047000.8,N
1521353715.6,286047000.6,N
1521353735.4,286047000.4,N
1521353755.3,286047002.7,N
1521353775.1,286047002.5,N
1521353795.8,286047000.1,N
1521353815.7,286047001.9,N
1521353835.5,286047002.8,N
1521353855.4,286047001.4,N
1521353875.2,286047004.2,N
1521353895.0,286047004.8,Y
1521353895.9,286047004.8,P
1521353915.8,286047004.0,N
1521353935.6,286047002.8,N
1521353955.5,286047003.6,N
1521353975.3,286047003.7,N
1521353995.1,286047003.5,N
1521354015.9,286047005.6,Y
1521354035.7,286046999.7,P
1521354055.5,286047000.9,N
1521354075.4,286047000.5,N
1521354095.2,286046999.7,N
1521354115.1,286047000.6,N
1521354116.0,286047000.6,N
1521354135.8,286046998.3,N
1521354155.6,286047002.7,N
1521354175.5,286047001.7,N
1521354195.3,286047001.9,N
1521354215.1,286047003.9,N
1521354235.9,286047001.6,N
1521354255.7,286047000.5,N
1521354275.6,286047001.1,N
1521354295.4,286047000.5,N
1521354315.2,286047001.1,N
1521354335.1,286046998.5,N
1521354336.0,286046998.5,N
1521354355.8,286047000.8,N
1521354375.6,286047002.5,N
1521354395.5,286047001.8,N
1521354415.3,286047001.6,N
1521354435.2,286047001.9,N
1521354455.9,286047001.5,N
1521354475.7,286047001.8,N
1521354495.6,286047002.2,N
1521354515.4,286047002.0,N
1521354535.2,286047002.4,N
1521354555.1,286047004.2,Y
1521354556.0,286047004.2,P
1521354575.8,286047001.5,N
1521354595.7,286047000.2,N
1521354615.5,286047000.2,N
1521354635.3,286047002.1,N
1521354655.2,286046999.8,N
1521354675.0,286047002.8,N
1521354675.9,286047002.8,N
1521354695.8,286047000.5,N
1521354715.6,286047000.5,N
1521354735.4,286047000.9,N
1521354755.3,286047000.6,N
1521354775.1,286047000.6,N
1521354795.9,286047001.1,N
1521354815.7,286046998.8,N
1521354835.5,286047001.2,N
1521354855.4,286046998.7,N
1521354875.2,286046998.2,N
1521354895.1,286046999.9,N
1521354896.0,286046999.9,N
1521354915.8,286047002.1,N
1521354935.6,286046999.9,N
1521354955.5,286047002.5,N
1521354975.3,286047002.2,N
1521354995.2,286046999.9,N
1521355015.9,286047000.1,N
1521355035.7,286047002.3,N
1521355055.6,286046998.3,N
1521355075.4,286046998.3,N
1521355095.2,286047001.1,N
1521355115.1,286046998.5,N
1521355116.0,286046998.5,N
1521355135.8,286047000.0,N
1521355155.7,286047000.5,N
1521355175.5,286047001.7,N
1521355195.3,286046999.7,N
1521355215.2,286047003.0,N
1521355235.0,286047001.6,N
1521355235.9,286047001.6,N
1521355255.8,286046999.7,N
1521355275.6,286046999.7,N
1521355295.4,286047001.5,N
1521355315.3,286046999.9,N
1521355335.1,286046999.8,N
1521355355.8,286047000.0,N
1521355375.7,286047001.7,N
1521355395.5,286047002.2,N
1521355415.4,286047000.1,N
1521355435.2,286047004.0,Y
1521355455.0,286047001.6,P
1521355455.9,286047001.6,N
1521355475.8,286047001.8,P
1521355495.6,286047006.0,Y
1521355515.5,286047003.3,P
1521355535.3,286047001.8,N
1521355555.1,286047004.4,P
1521355575.9,286047004.4,Y
1521355595.7,286046998.5,P
1521355615.6,286046997.0,N
1521355635.4,286046996.9,N
1521355655.2,286046999.0,N
1521355675.1,286047001.0,N
1521355676.0,286047001.0,N
1521355695.8,286047001.1,N
1521355715.6,286046998.1,N
1521355735.5,286046998.4,N
1521355755.3,286047000.3,N
1521355775.2,286046998.5,N
1521355795.9,286046999.0,N
1521355815.7,286046998.4,N
1521355835.6,286046998.5,N
1521355855.4,286046998.1,N
1521355875.2,286046998.1,N
1521355895.1,286046998.1,N
1521355896.0,286046998.1,N
1521355915.8,286046998.2,N
1521355935.7,286046998.9,N
1521355955.5,286046999.6,N
1521355975.3,286046997.4,N
1521355995.2,286046999.0,N
1521356015.9,286046998.3,N
1521356035.7,286046998.6,N
1521356055.6,286046999.7,N
1521356075.4,286047000.0,N
1521356095.3,286046998.2,N
1521356115.1,286046998.1,N
1521356116.0,286046998.1,N
1521356135.8,286046998.4,N
1521356155.7,286046998.4,N
1521356175.5,286046997.2,N
1521356195.3,286046999.5,N
1521356215.2,286046998.3,N
1521356235.0,286046999.2,N
1521356235.9,286046999.2,N
1521356255.8,286046999.5,N
1521356275.6,286046999.4,N
1521356295.4,286046997.3,Y
1521356315.3,286046999.2,P
1521356335.1,286046998.2,P
1521356355.8,286047002.7,P
1521356375.7,286047000.3,N
1521356395.5,286047000.2,N
